Simultaneous Nadir Overpasses (SNOs) Predictions

Prediction of SNOs between GOES-16 and TERRA Satellite Orbit:

Table of predicted SNOs for the next 14.0 days since TLE Epoch: 6/22/2019
Index Date Time (GOES-16) GOES-16 Lat,Lon TERRA Lat,Lon Distance(km) Time Diff (sec)
1 06/23/2019 03:15:01 0.02, -75.19 0.81, -71.61 407.92 80
2 06/23/2019 15:36:15 -0.02, -75.20 0.29, -76.76 176.56 80
3 06/25/2019 15:26:42 -0.03, -75.22 -0.30, -73.79 161.00 80
4 06/26/2019 03:48:07 0.03, -75.21 -0.75, -79.00 430.46 80
5 06/27/2019 15:14:30 -0.03, -75.23 -0.95, -70.84 499.09 80
6 06/28/2019 03:35:54 0.03, -75.22 -0.16, -76.03 92.22 80
7 06/30/2019 03:21:02 0.02, -75.24 0.50, -73.08 246.44 80
8 06/30/2019 15:42:44 -0.01, -75.25 0.60, -78.23 337.75 53
9 07/02/2019 15:32:44 -0.01, -75.27 -0.01, -75.26 1.15 80
10 07/04/2019 15:17:52 -0.02, -75.29 -0.67, -72.31 339.57 80
11 07/05/2019 03:41:56 0.02, -75.29 -0.43, -77.50 251.35 80




NCC Satellite Simultaneous Nadir Overpasses (SNOs) Prediction Service
